Left ArrowRight Arrow

Hourly Observations for April 13, 2023

Temp ( °F °C ) Dew Point ( °F °C ) Humidity (%) Winds ( mph kmh ) Pressure ( in mb ) Visibility ( mi km ) Precip ( " mm )
12:53 am 00:53 Clear 52 11.1 45 7.2 77 77 Calm 30.08 1019 10 16 0.00 0.00
1:53 am 01:53 Clear 51 10.6 46 7.8 83 83 Calm 30.08 1019 10 16 0.00 0.00
2:53 am 02:53 Clear 50 10 46 7.8 86 86 Calm 30.07 1018 10 16 0.00 0.00
3:53 am 03:53 Clear 49 9.4 46 7.8 90 90 Calm 30.06 1018 10 16 0.00 0.00
4:53 am 04:53 Clear 48 8.9 46 7.8 93 93 Calm 30.06 1018 10 16 0.00 0.00
5:53 am 05:53 Clear 47 8.3 45 7.2 93 93 Calm 30.06 1018 10 16 0.00 0.00
6:53 am 06:53 Clear 48 8.9 46 7.8 93 93 Calm 30.07 1018 10 16 0.00 0.00
7:53 am 07:53 Sunny 50 10 48 8.9 93 93 Calm 30.08 1019 10 16 0.00 0.00
8:53 am 08:53 Sunny 60 15.6 52 11.1 75 75 Calm 30.08 1019 10 16 0.00 0.00
9:53 am 09:53 Sunny 64 17.8 53 11.7 67 67 Calm 30.08 1019 10 16 0.00 0.00
10:53 am 10:53 Sunny 67 19.4 54 12.2 63 63 VRB 5 7 30.09 1019 10 16 0.00 0.00
11:53 am 11:53 Sunny 72 22.2 49 9.4 44 44 SE 7 11 30.07 1018 10 16 0.00 0.00
12:53 pm 12:53 Sunny 72 22.2 55 12.8 55 55 SSE 8 13 30.06 1018 10 16 0.00 0.00
1:53 pm 13:53 Sunny 75 23.9 55 12.8 50 50 VRB 3 6 30.04 1017 10 16 0.00 0.00
2:53 pm 14:53 Sunny 76 24.4 52 11.1 43 43 SSE 10 17 30.01 1016 10 16 0.00 0.00
3:53 pm 15:53 Sunny 75 23.9 56 13.3 51 51 VRB 6 9 29.99 1016 10 16 0.00 0.00
4:53 pm 16:53 Cloudy 75 23.9 56 13.3 51 51 SE 8 13 29.97 1015 10 16 0.00 0.00
5:53 pm 17:53 Cloudy with Light Rain 70 21.1 58 14.4 66 66 VRB 3 6 29.95 1014 10 16 0.01 0.13
6:53 pm 18:53 Cloudy with Heavy Rain 67 19.4 60 15.6 79 79 VRB 5 7 29.99 1016 2 3 0.05 1.27
7:04 pm 19:04 Cloudy with Light Rain 65 18.3 61 16.1 87 87 Calm 30.00 1016 6 10 0.01 0.13
7:53 pm 19:53 Cloudy with Light Rain 65 18.3 63 17.2 93 93 Calm 29.98 1015 10 16 0.01 0.25
8:53 pm 20:53 Mostly Cloudy 64 17.8 62 16.7 93 93 Calm 29.97 1015 10 16 0.01 0.25
9:39 pm 21:39 Cloudy with Light Rain 64 17.8 61 16.1 90 90 Calm 29.98 1015 7 11 0.01 0.25
9:53 pm 21:53 Cloudy with Light Rain 64 17.8 61 16.1 90 90 E 3 6 29.98 1015 8 13 0.01 0.25
10:07 pm 22:07 Cloudy with Light Rain 64 17.8 61 16.1 90 90 VRB 5 7 29.98 1015 10 16 0.01 0.25
10:25 pm 22:25 Mostly Cloudy 64 17.8 61 16.1 90 90 VRB 6 9 29.98 1015 10 16 0.01 0.25
10:53 pm 22:53 Mostly Cloudy 64 17.8 61 16.1 90 90 VRB 3 6 29.97 1015 10 16 0.01 0.25
11:36 pm 23:36 Mostly Cloudy 64 17.8 61 16.1 90 90 Calm 29.97 1015 10 16 0.00 0.00
11:50 pm 23:50 Cloudy 64 18 61 16 88 88 Calm 29.98 1015 10 16 0.00 0.00
11:53 pm 23:53 Cloudy 64 17.8 61 16.1 90 90 Calm 29.96 1015 10 16 0.00 0.00

Powered by Vaisala Xweather